Location: Euba
(50.8391°N, 13.0240°E)
Time: 01:20:32
(UTC+00:00)

Daily predictions for brighter satellites

Satellite Brightness Start Highest point End
(mag) Time Altitude Azimuth Time Altitude Azimuth Time Altitude Azimuth
STARLINK-1105 2.7 00:00:12 10° WNW 00:03:18 89° SW 00:06:24 10° ESE
STARLINK-1209 2.7 00:00:26 10° WNW 00:03:35 72° SSW 00:06:44 10° ESE
STARLINK-1247 2.7 00:01:06 10° WNW 00:04:14 88° SSW 00:07:22 10° ESE
STARLINK-1227 2.7 00:01:33 10° WNW 00:04:40 88° SSW 00:07:46 10° ESE
STARLINK-1208 3.9 00:00:31 10° WNW 00:04:40 71° N 00:08:49 10° E
ATLAS CENTAUR R/B 1.9 00:02:40 10° NW 00:04:51 53° NNE 00:08:55 10° ESE
STARLINK-1226 2.7 00:02:25 10° WNW 00:05:32 87° SSW 00:08:40 10° ESE
STARLINK-1215 2.7 00:03:21 10° WNW 00:06:29 86° SSW 00:09:37 10° ESE
STARLINK-1225 4.0 00:02:39 10° W 00:06:47 65° N 00:10:55 10° ENE
Nadezhda 2 Rocket 4.4 00:04:33 26° S 00:08:12 88° W 00:14:21 10° N
STARLINK-1217 2.7 00:05:07 10° WNW 00:08:15 84° SSW 00:11:22 10° ESE
STARLINK-1229 2.7 00:06:02 10° WNW 00:09:11 84° SSW 00:12:18 10° ESE
STARLINK-1271 3.8 00:05:32 10° WNW 00:09:41 73° NNE 00:13:50 10° E
STARLINK-1270 2.7 00:06:54 10° WNW 00:10:02 83° SSW 00:13:10 10° ESE
Cosmos 1726 3.9 00:07:30 10° NW 00:10:06 18° W 00:10:54 17° WSW
GEOS 3 Rocket 3.8 00:07:38 24° S 00:10:35 51° SW 00:15:45 10° NW
Cosmos 2058 Rocket 3.0 00:07:08 10° NNW 00:11:33 80° W 00:13:46 29° S
STARLINK-1230 4.0 00:07:38 10° W 00:11:46 64° N 00:15:54 10° ENE
STARLINK-1189 2.7 00:08:44 10° WNW 00:11:53 81° SSW 00:15:00 10° ESE
Meteor 1-29 2.9 00:09:04 10° N 00:12:28 72° WNW 00:13:32 40° SSW
STARLINK-1188 2.7 00:09:38 10° WNW 00:12:45 80° SSW 00:15:53 10° ESE
STARLINK-1235 2.7 00:10:20 10° WNW 00:13:24 68° SSW 00:16:30 10° ESE
STARLINK-1187 2.7 00:10:45 10° WNW 00:13:51 74° SSW 00:16:56 10° ESE
Cosmos 2228 3.6 00:10:00 10° NNW 00:14:00 40° W 00:15:32 29° SW
STARLINK-1154 3.8 00:10:31 10° WNW 00:14:40 75° NNE 00:18:49 10° E
STARLINK-1191 2.7 00:12:06 10° WNW 00:15:13 78° SSW 00:18:19 10° ESE
COSMOS 2455 2.9 00:11:40 26° SSW 00:15:13 75° ESE 00:21:16 10° NE
SJ 16-02 3.2 00:11:32 10° N 00:15:27 30° NE 00:19:22 10° ESE
STARLINK-1221 2.7 00:12:59 10° WNW 00:16:05 77° SSW 00:19:11 10° ESE
STARLINK-1243 4.0 00:12:37 10° W 00:16:46 64° N 00:20:53 10° E
STARLINK-1222 2.7 00:13:52 10° WNW 00:16:58 76° SSW 00:20:04 10° ESE
STARLINK-1214 2.7 00:14:47 10° WNW 00:17:54 75° SSW 00:20:59 10° ESE
Cosmos 1953 4.4 00:15:55 10° NW 00:18:16 15° W 00:19:26 14° WSW
STARLINK-1197 3.7 00:15:30 10° WNW 00:19:39 77° NNE 00:23:49 10° E
SL-14 R/B 3.2 00:18:39 33° S 00:20:19 79° E 00:24:12 10° NNE
IRAS Rocket 4.3 00:17:53 24° S 00:21:17 63° WSW 00:26:49 10° NNW
STARLINK-1236 4.1 00:17:37 10° W 00:21:45 63° N 00:25:53 10° E
Cosmos 1300 2.6 00:19:31 10° NNW 00:23:21 79° W 00:25:04 31° S
Okean 1-7 Rocket 3.6 00:22:03 29° SSW 00:24:18 81° W 00:28:50 10° N
STARLINK-1198 3.7 00:20:27 10° WNW 00:24:36 79° NNE 00:28:46 10° ESE
Cosmos 1174 3.3 00:23:33 40° SSW 00:24:37 78° SE 00:28:22 10° NE
Cosmos 921 Rocket 3.5 00:23:34 26° SSE 00:25:41 51° ESE 00:29:53 10° NNE
BREEZE M DEB (TANK) 2.0 00:26:49 48° SSE 00:26:49 48° SSE 00:29:42 10° ESE
COSMOS 2487 3.8 00:24:14 10° NW 00:27:03 23° WSW 00:27:18 23° WSW
STARLINK-1199 3.7 00:25:28 10° WNW 00:29:38 81° NNE 00:33:48 10° ESE
STARLINK-1269 4.1 00:27:35 10° W 00:31:43 63° N 00:35:51 10° E
Meteor 2-16 Rocket 4.5 00:27:43 22° S 00:31:53 82° E 00:38:03 10° NNE
Cosmos 1626 Rocket 4.0 00:29:36 22° SSE 00:32:11 55° E 00:36:25 10° NNE
Cosmos 2219 3.5 00:26:40 10° NNW 00:32:22 70° ENE 00:37:59 10° SE
STARLINK-1210 3.6 00:30:26 10° WNW 00:34:36 84° NNE 00:38:45 10° ESE
Cosmos 1626 2.2 00:34:31 31° SSW 00:36:08 66° WNW 00:39:50 10° N
STARLINK-1200 4.1 00:32:36 10° W 00:36:44 63° N 00:40:52 10° E
STARLINK-60 3.2 00:36:26 38° SSW 00:37:12 48° SSE 00:40:19 10° ENE
Cosmos 1656 Rocket 4.4 00:33:51 16° WSW 00:38:11 46° NW 00:43:33 10° NNE
STARLINK-1219 3.6 00:35:25 10° WNW 00:39:35 87° NNE 00:43:44 10° ESE
Nadezhda 1 Rocket 3.9 00:34:37 10° N 00:40:48 85° W 00:45:52 16° S
STARLINK-1192 4.1 00:37:36 10° W 00:41:44 63° N 00:45:51 10° E
FALCON 9 R/B 4.0 00:38:25 20° SSW 00:42:44 32° SSE 01:00:19 10° ESE
STARLINK-1211 3.6 00:40:23 10° WNW 00:44:33 90° N 00:48:42 10° ESE
STARLINK-1244 4.1 00:42:34 10° W 00:46:42 64° N 00:50:50 10° E
MOZ.5/SAFIR/RUBIN 5/SL-8 3.8 00:44:15 21° S 00:47:17 66° WSW 00:51:56 10° NNW
UNK 3.7 00:44:01 17° SSE 00:47:33 85° WSW 00:52:11 10° NNW
Cosmos 2297 Rocket 2.4 00:42:21 10° NNW 00:48:03 74° ENE 00:53:41 10° SE
Cosmos 220 Rocket 4.3 00:46:16 23° S 00:48:52 63° ESE 00:53:17 10° NNE
ERBS 4.5 00:46:33 10° NW 00:49:30 28° N 00:52:27 10° ENE
STARLINK-1245 3.5 00:45:23 10° WNW 00:49:33 87° SSW 00:53:42 10° ESE
Cosmos 1812 Rocket 3.7 00:46:16 10° N 00:50:47 80° E 00:54:29 15° SSE
CZ-4B R/B 4.1 00:46:06 10° NNE 00:51:07 52° E 00:55:16 15° S
STARLINK-1138 4.1 00:47:34 10° WNW 00:51:42 64° N 00:55:50 10° E
SL-4 R/B 2.5 00:49:13 21° SW 00:52:19 59° SSE 00:56:57 10° ENE
Cosmos 1437 2.6 00:52:48 33° SSW 00:53:57 65° WNW 00:56:58 10° N
STARLINK-1203 4.1 00:50:10 10° WNW 00:54:21 65° N 00:58:33 10° E
STARLINK-1233 3.5 00:50:21 10° WNW 00:54:30 84° SSW 00:58:40 10° ESE
Cosmos 990 Rocket 4.5 00:50:35 10° NNW 00:55:50 62° ENE 01:01:02 10° SE
STARLINK-1143 4.0 00:52:33 10° WNW 00:56:42 65° N 01:00:50 10° E
STARLINK-1204 3.5 00:55:21 10° WNW 00:59:30 80° SSW 01:03:39 10° ESE
Timation 2 Rocket 4.3 00:53:43 10° NW 00:59:44 45° WSW 01:04:30 15° S
ATLAS CENTAUR R/B 1.6 00:56:56 19° SW 00:59:54 66° NW 01:03:59 10° NE
SL-16 R/B 2.6 00:56:01 14° S 01:01:23 66° WSW 01:07:33 10° NNW
STARLINK-1241 4.0 00:57:32 10° WNW 01:01:41 66° N 01:05:49 10° E
NOSS 3-4 (A) 3.9 00:57:31 12° WSW 01:03:04 59° NW 01:09:32 10° NE
BREEZE-M R/B 3.5 01:01:07 22° SSW 01:03:05 32° SSE 01:05:49 10° E
NOSS 3-4 (C) 3.9 00:57:37 12° WSW 01:03:09 59° NW 01:09:39 10° NE
FALCON 9 DEB 4.2 01:02:08 23° S 01:03:23 31° SE 01:06:29 10° E
STARLINK-1238 3.5 01:00:18 10° WNW 01:04:27 77° SSW 01:08:35 10° ESE
Cosmos 1602 Rocket 3.5 01:01:58 20° S 01:04:56 89° ENE 01:09:17 10° N
Cosmos 1455 2.4 01:02:02 10° N 01:05:47 66° ENE 01:09:23 11° SSE
STARLINK-29 3.4 01:04:34 27° SSW 01:05:52 44° SSE 01:08:56 10° ENE
STARLINK-1239 4.0 01:02:31 10° WNW 01:06:40 66° N 01:10:48 10° E
ATLAS 3B R/B 3.3 01:01:05 10° NW 01:07:07 35° WSW 01:12:42 12° S
STARLINK-1201 3.5 01:05:18 10° WNW 01:09:27 73° SSW 01:13:34 10° ESE
BREEZE-M DEB (TANK) 3.8 01:09:29 14° SSE 01:09:33 14° SE 01:10:52 10° ESE
IRS-1D 4.2 01:05:05 10° NNE 01:10:20 52° E 01:15:16 11° S
CENTAUR R/B 4.3 01:04:33 10° WNW 01:10:31 22° WSW 01:14:47 15° SW
STARLINK-1240 4.0 01:07:31 10° WNW 01:11:40 68° N 01:15:48 10° E
GP-B 3.4 01:07:28 10° N 01:11:55 65° E 01:16:11 11° S
Meteor 2-1 Rocket 4.2 01:07:36 10° NNW 01:13:04 66° W 01:18:03 12° S
BREEZE-M DEB (TANK) 1.1 01:12:38 22° WSW 01:14:00 55° SSE 01:16:19 10° E
STARLINK-1206 3.5 01:10:17 10° WNW 01:14:25 69° SSW 01:18:32 10° ESE
Cosmos-2242 3.4 01:11:07 10° N 01:15:23 63° ENE 01:19:36 10° SSE
STARLINK-1216 4.0 01:12:30 10° WNW 01:16:39 69° N 01:20:48 10° E
Cosmos 1745 Rocket 4.2 01:12:45 17° SSW 01:17:31 61° WNW 01:23:37 10° N
STARLINK-1205 3.5 01:15:16 10° WNW 01:19:23 66° SSW 01:23:29 10° SE
STARLINK-1237 3.9 01:17:30 10° WNW 01:21:39 70° N 01:25:48 10° E
Cosmos 2181 Rocket 4.2 01:15:29 10° N 01:21:56 81° E 01:28:24 10° SSE
RESURS DK-1 2.8 01:19:17 17° SW 01:22:17 55° NW 01:26:23 10° NNE
SL-08 R/B 3.9 01:18:11 10° SSE 01:22:48 58° ENE 01:27:23 10° N
Cosmos 1356 Rocket 4.3 01:19:36 10° NNW 01:23:18 32° W 01:25:49 17° SW
Cosmos 2227 Rocket 2.2 01:17:56 10° NNW 01:23:38 75° WSW 01:29:17 10° SSE
STARLINK-1218 3.6 01:20:14 10° WNW 01:24:20 62° SSW 01:28:26 10° SE
CZ-2D R/B 2.2 01:20:40 10° N 01:25:55 68° WNW 01:30:15 15° SSW
STARLINK-1202 3.9 01:22:29 10° WNW 01:26:39 72° NNE 01:30:48 10° E
Cosmos 2369 Rocket 4.4 01:24:23 10° WNW 01:28:09 18° NNW 01:31:55 10° N
Cosmos 1763 Rocket 4.1 01:23:45 11° S 01:28:27 50° ESE 01:33:23 10° NNE
ADEOS II 2.6 01:23:26 10° NNE 01:28:38 57° E 01:33:48 10° S
Cosmos 1697 Rocket 3.8 01:23:35 10° S 01:28:44 37° ESE 01:33:55 10° NE
STARLINK-1254 3.6 01:25:14 10° WNW 01:29:19 59° SSW 01:33:23 10° SE
Cosmos 1703 3.7 01:26:47 11° S 01:30:31 61° E 01:34:26 10° NNE
ATLAS 2AS CENTAUR R/B 3.8 01:24:33 10° WSW 01:32:20 51° NNW 01:39:55 10° NE
STARLINK-1231 3.7 01:30:14 10° WNW 01:34:18 55° SSW 01:38:21 10° SE
Resurs 1-4 Rocket 2.4 01:30:28 10° N 01:35:38 56° WNW 01:40:11 13° SW
STARLINK-1228 4.5 01:33:16 10° W 01:35:42 19° SW 01:38:07 10° S
STARLINK-1246 3.8 01:32:27 10° WNW 01:36:37 76° NNE 01:40:46 10° E
STARLINK-1234 4.4 01:34:44 10° W 01:36:54 18° SW 01:37:02 17° SW
STARLINK-1212 4.1 01:35:53 10° W 01:38:21 21° SW 01:40:48 10° SSE
STARLINK-1105 4.1 01:36:23 10° W 01:38:49 21° SW 01:41:14 10° SSE
STARLINK-1232 3.7 01:35:13 10° WNW 01:39:16 52° SSW 01:43:18 10° SE
STARLINK-1247 4.1 01:37:17 10° W 01:39:45 21° SW 01:42:11 10° SSE
STARLINK-1227 4.1 01:37:45 10° W 01:40:11 21° SW 01:42:35 10° SSE
ARIANE 5 R/B 3.4 01:35:50 10° NNE 01:40:45 46° E 01:45:33 10° S
USA 81 4.3 01:36:19 13° SSW 01:40:53 57° W 01:46:07 10° N
STARLINK-1226 4.1 01:38:37 10° W 01:41:02 21° SW 01:43:28 10° SSE
STARLINK-1224 3.8 01:37:26 10° WNW 01:41:36 78° NNE 01:45:45 10° ESE
STARLINK-1215 4.2 01:39:34 10° W 01:41:59 20° SW 01:44:23 10° SSE
STARLINK-52 2.9 01:39:41 15° WSW 01:42:15 68° SSE 01:45:28 10° ENE
NPP 3.9 01:37:46 10° N 01:43:04 58° WNW 01:47:57 12° SW
Cosmos 1758 Rocket 3.5 01:39:23 12° SSW 01:43:19 77° W 01:47:43 10° N
STARLINK-1217 4.2 01:41:22 10° W 01:43:43 20° SW 01:46:05 10° S
STARLINK-1208 3.8 01:40:11 10° WNW 01:44:12 49° SSW 01:48:12 10° SE
STARLINK-1229 4.2 01:42:18 10° W 01:44:39 20° SW 01:47:00 10° S
H-2A R/B 3.0 01:41:19 10° SE 01:45:30 51° ENE 01:49:50 10° N
STARLINK-1270 4.2 01:43:11 10° W 01:45:30 19° SW 01:47:51 10° S
STARLINK-1225 3.7 01:42:25 10° WNW 01:46:36 80° NNE 01:50:45 10° ESE
STARLINK-1189 4.3 01:45:03 10° W 01:47:20 19° SW 01:49:37 10° S
STARLINK-1188 4.3 01:45:56 10° W 01:48:13 19° SW 01:50:29 10° S
Cosmos 1898 Rocket 3.7 01:43:27 10° NNW 01:48:41 56° WSW 01:53:51 10° S
STARLINK-1271 3.9 01:45:12 10° WNW 01:49:11 46° SSW 01:53:09 10° SE
STARLINK-1187 4.4 01:47:11 10° W 01:49:15 16° SW 01:51:18 10° S
STARLINK-1191 4.3 01:48:28 10° W 01:50:39 18° SW 01:52:49 10° S
Lacrosse 4 Rocket 1.7 01:46:24 10° NNW 01:50:48 73° NE 01:55:02 10° SE
STARLINK-1221 4.4 01:49:21 10° W 01:51:31 17° SW 01:53:41 10° S
STARLINK-1230 3.7 01:47:24 10° WNW 01:51:34 83° NNE 01:55:44 10° ESE
Starlink 7 placeholder 2.6 01:49:48 10° W 01:51:44 48° N 01:53:41 10° ENE
Meteor 1-21 Rocket 4.4 01:46:49 12° SSW 01:51:59 60° WNW 01:57:39 10° N
STARLINK-1222 4.4 01:50:16 10° W 01:52:24 17° SW 01:54:32 10° S
STARLINK-1214 4.4 01:51:12 10° W 01:53:18 17° SW 01:55:24 10° S
Cosmos 1656 3.7 01:48:20 12° SSW 01:53:44 89° WNW 01:59:24 10° NNE
IDEFIX/ARIANE 42P 4.1 01:49:13 10° NNE 01:54:01 34° E 01:58:47 10° SSE
SJ 16-02 1.9 01:50:01 10° NW 01:54:08 38° WSW 01:58:13 10° S
STARLINK-1154 3.9 01:50:12 10° WNW 01:54:09 43° SSW 01:58:05 10° SE
Cosmos 2285 Rocket 4.0 01:47:46 10° NNW 01:54:12 77° WSW 02:00:31 10° SSE
CZ-4C R/B 2.9 01:50:54 10° SSW 01:55:41 45° ESE 02:01:22 10° NE
Cosmos 2084 3.7 01:52:18 11° SW 01:56:32 69° NW 02:01:02 10° NE
STARLINK-1243 3.7 01:52:23 10° WNW 01:56:33 86° NNE 02:00:43 10° ESE
Cosmos 468 Rocket 4.0 01:52:22 11° SSW 01:57:21 84° WNW 02:02:32 10° NNE
Cosmos 1937 Rocket 3.6 01:53:48 10° NNW 01:58:58 62° WSW 02:04:09 10° S
STARLINK-1197 4.0 01:55:12 10° WNW 01:59:06 40° SW 02:02:59 10° SE
Cosmos 1953 Rocket 3.6 01:55:09 10° S 01:59:37 89° ESE 02:04:06 10° N
Meteor 2-10 Rocket 4.2 01:55:50 10° NNW 02:00:44 37° W 02:05:26 10° SSW
Uosat 12 SS-18 rocket 4.2 01:56:50 10° NW 02:01:10 79° NE 02:05:36 10° SE
STARLINK-1236 3.6 01:57:22 10° WNW 02:01:32 89° NNE 02:05:42 10° ESE
COSMOS 2455 4.2 01:56:20 10° W 02:01:43 33° NW 02:07:08 10° NNE
Cosmos 2369 4.1 01:56:29 10° SSW 02:02:01 61° ESE 02:07:36 10° NE
STARLINK-1198 4.1 02:00:10 10° WNW 02:04:01 38° SW 02:07:52 10° SSE
Cosmos 1842 Rocket 4.3 02:00:31 10° N 02:04:59 59° ENE 02:09:24 10° SSE
Cosmos 1709 Rocket 4.4 02:01:54 10° SSW 02:07:46 47° WNW 02:13:41 10° N
STARLINK-1199 4.2 02:05:12 10° WNW 02:09:01 36° SW 02:12:48 10° SSE
Iridium 2 3.9 02:06:26 10° N 02:10:13 73° E 02:13:58 10° S
STARLINK-1269 3.6 02:07:18 10° WNW 02:11:29 85° SSW 02:15:38 10° ESE
USA 129 4.2 02:10:59 10° NE 02:12:22 15° E 02:13:33 10° SE
STARLINK-60 3.4 02:10:09 10° W 02:13:20 61° N 02:16:32 10° ENE
STARLINK-1210 4.3 02:10:12 10° W 02:13:57 33° SW 02:17:41 10° SSE
Cosmos 2219 4.4 02:11:37 10° NW 02:16:00 23° WSW 02:20:20 10° SSW
STARLINK-1200 3.6 02:12:19 10° WNW 02:16:29 81° SSW 02:20:37 10° ESE
Cosmos 1814 Rocket 4.5 02:12:32 10° S 02:17:49 63° ESE 02:23:06 10° NNE
STARLINK-1320 3.2 02:15:01 10° SW 02:18:04 52° SSE 02:21:07 10° ENE
STARLINK-1322 3.2 02:15:22 10° SW 02:18:24 53° SSE 02:21:28 10° ENE
STARLINK-1324 3.2 02:15:43 10° SW 02:18:46 53° SSE 02:21:49 10° ENE
STARLINK-1219 4.4 02:15:12 10° W 02:18:53 31° SW 02:22:34 10° SSE
STARLINK-1294 3.2 02:15:59 10° SW 02:19:02 53° SSE 02:22:08 10° ENE
Nadezhda 3 Rocket 4.3 02:13:07 10° N 02:19:24 77° E 02:25:43 10° SSE
STARLINK-1261 3.2 02:16:22 10° SW 02:19:25 53° SSE 02:22:29 10° ENE
STARLINK-1325 3.2 02:16:43 10° SW 02:19:47 54° SSE 02:22:50 10° ENE
STARLINK-1333 3.2 02:17:01 10° SW 02:20:05 54° SSE 02:23:09 10° ENE
STARLINK-1334 3.2 02:17:22 10° SW 02:20:25 54° SSE 02:23:29 10° ENE
STARLINK-1326 3.2 02:17:43 10° SW 02:20:46 55° SSE 02:23:50 10° ENE
Cosmos 1980 Rocket 2.9 02:15:33 10° S 02:20:56 51° ESE 02:26:23 10° NE
STARLINK-1323 3.2 02:18:03 10° SW 02:21:06 55° SSE 02:24:10 10° ENE
STARLINK-1338 3.5 02:17:57 10° SW 02:21:21 54° SSE 02:24:46 10° ENE
STARLINK-1349 3.2 02:18:22 10° SW 02:21:26 55° SSE 02:24:30 10° ENE
STARLINK-1192 3.6 02:17:18 10° WNW 02:21:28 78° SSW 02:25:36 10° ESE
STARLINK-1336 3.1 02:18:45 10° SW 02:21:48 55° SSE 02:24:52 10° ENE
STARLINK-1331 3.1 02:19:03 10° SW 02:22:06 56° SSE 02:25:11 10° ENE
STARLINK-1344 3.1 02:19:23 10° SW 02:22:27 56° SSE 02:25:32 10° ENE
STARLINK-1343 3.1 02:19:43 10° SW 02:22:47 56° SSE 02:25:51 10° ENE
CZ-4B R/B 3.7 02:20:15 10° SE 02:22:51 26° ENE 02:25:29 10° N
STARLINK-1346 3.2 02:20:04 10° SW 02:23:09 57° SSE 02:26:15 10° ENE
STARLINK-1328 3.1 02:20:25 10° SW 02:23:29 57° SSE 02:26:34 10° ENE
STARLINK-1354 3.1 02:20:43 10° SW 02:23:47 57° SSE 02:26:52 10° ENE
STARLINK-1211 4.4 02:20:13 10° W 02:23:49 29° SW 02:27:25 10° SSE
STARLINK-1347 3.1 02:21:05 10° SW 02:24:09 57° SSE 02:27:14 10° ENE
STARLINK-1357 3.1 02:21:24 10° SW 02:24:28 58° SSE 02:27:33 10° ENE
STARLINK-1335 3.1 02:21:45 10° SW 02:24:49 58° SSE 02:27:54 10° ENE
ERS-2 2.5 02:21:43 10° S 02:25:14 45° W 02:28:48 10° NNW
STARLINK-1371 3.4 02:21:57 10° SW 02:25:23 57° SSE 02:28:49 10° ENE
IRS-1C 4.3 02:21:33 10° N 02:26:51 62° WNW 02:32:05 10° SSW
